2022-02-16 00:03:05 r, 15.94m,0000000035Hz,0000013095c,0000000.028s,-003.3C,00002191
2022-02-16 00:13:06 r, 15.96m,0000000035Hz,0000013282c,0000000.029s,-003.6C,00002191
2022-02-16 00:23:04 r, 15.95m,0000000035Hz,0000013205c,0000000.029s,-003.9C,00002191
2022-02-16 00:33:06 r, 15.90m,0000000037Hz,0000012566c,0000000.027s,-004.2C,00002191
2022-02-16 00:43:05 r, 15.80m,0000000040Hz,0000011413c,0000000.025s,-004.2C,00002191
2022-02-16 00:53:04 r, 15.67m,0000000045Hz,0000010201c,0000000.022s,-004.2C,00002191
2022-02-16 01:03:05 r, 15.66m,0000000045Hz,0000010102c,0000000.022s,-004.6C,00002191
2022-02-16 01:13:05 r, 15.83m,0000000040Hz,0000011775c,0000000.026s,-004.6C,00002191
2022-02-16 01:23:04 r, 15.93m,0000000036Hz,0000012901c,0000000.028s,-004.2C,00002191
2022-02-16 01:33:07 r, 15.96m,0000000035Hz,0000013276c,0000000.029s,-003.9C,00002191
2022-02-16 01:43:05 r, 15.94m,0000000035Hz,0000012993c,0000000.028s,-003.3C,00002191
2022-02-16 01:53:04 r, 15.93m,0000000035Hz,0000012867c,0000000.028s,-003.0C,00002191
2022-02-16 02:03:07 r, 15.95m,0000000035Hz,0000013225c,0000000.029s,-002.3C,00002191
2022-02-16 02:13:05 r, 15.97m,0000000034Hz,0000013374c,0000000.029s,-001.7C,00002191
2022-02-16 02:23:04 r, 16.03m,0000000033Hz,0000014094c,0000000.031s,-001.3C,00002191
2022-02-16 02:33:05 r, 16.03m,0000000033Hz,0000014173c,0000000.031s,-000.7C,00002191
2022-02-16 02:43:06 r, 16.02m,0000000033Hz,0000014013c,0000000.030s,-000.4C,00002191
2022-02-16 02:53:04 r, 16.20m,0000000028Hz,0000016614c,0000000.036s, 000.1C,00002191
2022-02-16 03:03:06 r, 16.14m,0000000030Hz,0000015641c,0000000.034s, 000.3C,00002191
2022-02-16 03:13:05 r, 16.21m,0000000027Hz,0000016733c,0000000.036s, 000.3C,00002191
2022-02-16 03:23:04 r, 16.26m,0000000026Hz,0000017451c,0000000.038s, 000.3C,00002191
2022-02-16 03:33:05 r, 16.32m,0000000025Hz,0000018558c,0000000.040s, 000.3C,00002191
2022-02-16 03:43:07 r, 16.40m,0000000023Hz,0000019952c,0000000.043s, 000.3C,00002191
2022-02-16 03:53:04 r, 16.37m,0000000024Hz,0000019415c,0000000.042s, 000.3C,00002191
2022-02-16 04:03:04 r, 16.48m,0000000022Hz,0000021479c,0000000.047s, 000.3C,00002191
2022-02-16 04:13:05 r, 16.49m,0000000021Hz,0000021612c,0000000.047s, 000.6C,00002191
2022-02-16 04:23:04 r, 16.44m,0000000023Hz,0000020671c,0000000.045s, 000.6C,00002191
2022-02-16 04:33:07 r, 16.40m,0000000023Hz,0000020070c,0000000.044s, 000.9C,00002191
2022-02-16 04:43:05 r, 16.42m,0000000023Hz,0000020229c,0000000.044s, 001.2C,00002191
2022-02-16 04:53:04 r, 16.65m,0000000018Hz,0000025107c,0000000.054s, 001.6C,00002191
2022-02-16 05:03:05 r, 16.63m,0000000019Hz,0000024703c,0000000.054s, 001.6C,00002191
2022-02-16 05:13:07 r, 16.62m,0000000019Hz,0000024429c,0000000.053s, 001.9C,00002191
2022-02-16 05:23:04 r, 16.64m,0000000019Hz,0000024958c,0000000.054s, 001.9C,00002191
2022-02-16 05:33:06 r, 16.64m,0000000019Hz,0000024900c,0000000.054s, 001.9C,00002191
2022-02-16 05:43:05 r, 16.64m,0000000019Hz,0000024927c,0000000.054s, 001.9C,00002191
2022-02-16 05:53:04 r, 16.65m,0000000019Hz,0000025160c,0000000.055s, 002.2C,00002191
2022-02-16 06:03:07 r, 16.65m,0000000019Hz,0000024981c,0000000.054s, 002.2C,00002191
2022-02-16 06:13:05 r, 16.67m,0000000018Hz,0000025539c,0000000.055s, 002.2C,00002191
2022-02-16 06:23:04 r, 16.73m,0000000017Hz,0000027076c,0000000.059s, 002.5C,00002191
2022-02-16 06:33:07 r, 16.86m,0000000015Hz,0000030472c,0000000.066s, 002.5C,00002191
2022-02-16 06:43:05 r, 16.42m,0000000023Hz,0000020339c,0000000.044s, 002.5C,00002191
2022-02-16 06:53:04 r, 15.19m,0000000071Hz,0000006510c,0000000.014s, 002.5C,00002191
2022-02-16 07:03:04 r, 13.31m,0000000400Hz,0000000000c,0000000.000s, 002.2C,00002191
2022-02-16 07:13:06 r, 11.25m,0000002683Hz,0000000000c,0000000.000s, 002.2C,00002191
2022-02-16 07:23:04 r, 09.35m,0000015443Hz,0000000000c,0000000.000s, 002.2C,00002191
2022-02-16 07:33:04 r, 08.01m,0000053204Hz,0000000000c,0000000.000s, 002.2C,00002191
2022-02-16 07:43:07 r, 07.06m,0000127344Hz,0000000000c,0000000.000s, 002.5C,00002191
2022-02-16 07:53:04 r, 06.34m,0000247766Hz,0000000000c,0000000.000s, 002.5C,00002191
2022-02-16 08:03:04 r, 00.00m,0000401555Hz,0000000000c,0000000.000s, 002.5C,00002191
2022-02-16 08:13:07 r, 00.00m,0000599051Hz,0000000000c,0000000.000s, 002.5C,00002191
2022-02-16 08:23:04 r, 00.00m,0000599050Hz,0000000000c,0000000.000s, 002.5C,00002191
2022-02-16 08:33:04 r, 00.00m,0000599001Hz,0000000000c,0000000.000s, 002.9C,00002191
2022-02-16 08:43:05 r, 00.00m,0000598983Hz,0000000000c,0000000.000s, 002.9C,00002191
2022-02-16 08:53:04 r, 00.00m,0000598947Hz,0000000000c,0000000.000s, 003.2C,00002191
2022-02-16 09:03:04 r, 00.00m,0000598991Hz,0000000000c,0000000.000s, 003.5C,00002191
2022-02-16 09:13:05 r, 00.00m,0000598915Hz,0000000000c,0000000.000s, 003.2C,00002191
2022-02-16 09:23:04 r, 00.00m,0000599036Hz,0000000000c,0000000.000s, 003.5C,00002191
2022-02-16 09:33:04 r, 00.00m,0000598994Hz,0000000000c,0000000.000s, 003.5C,00002191
2022-02-16 09:43:06 r, 00.00m,0000599033Hz,0000000000c,0000000.000s, 003.8C,00002191
2022-02-16 09:53:04 r, 00.00m,0000599035Hz,0000000000c,0000000.000s, 003.2C,00002191
2022-02-16 10:03:04 r, 00.00m,0000599072Hz,0000000000c,0000000.000s, 003.2C,00002191
2022-02-16 10:13:07 r, 00.00m,0000599060Hz,0000000000c,0000000.000s, 002.9C,00002191
2022-02-16 10:23:04 r, 00.00m,0000599037Hz,0000000000c,0000000.000s, 002.9C,00002191
2022-02-16 10:33:04 r, 00.00m,0000598924Hz,0000000000c,0000000.000s, 003.2C,00002191
2022-02-16 10:43:07 r, 00.00m,0000598927Hz,0000000000c,0000000.000s, 003.5C,00002191
2022-02-16 10:53:04 r, 00.00m,0000598909Hz,0000000000c,0000000.000s, 003.8C,00002191
2022-02-16 11:03:04 r, 00.00m,0000598969Hz,0000000000c,0000000.000s, 004.1C,00002191
2022-02-16 11:13:05 r, 00.00m,0000598712Hz,0000000000c,0000000.000s, 005.1C,00002191
2022-02-16 11:23:04 r, 00.00m,0000598855Hz,0000000000c,0000000.000s, 004.8C,00002191
2022-02-16 11:33:04 r, 00.00m,0000598850Hz,0000000000c,0000000.000s, 004.1C,00002191
2022-02-16 11:43:05 r, 00.00m,0000598906Hz,0000000000c,0000000.000s, 004.1C,00002191
2022-02-16 11:53:04 r, 00.00m,0000598784Hz,0000000000c,0000000.000s, 004.5C,00002191
2022-02-16 12:03:04 r, 00.00m,0000598869Hz,0000000000c,0000000.000s, 003.8C,00002191
2022-02-16 12:13:04 r, 00.00m,0000598768Hz,0000000000c,0000000.000s, 004.5C,00002191
2022-02-16 12:23:04 r, 00.00m,0000598789Hz,0000000000c,0000000.000s, 004.5C,00002191
2022-02-16 12:33:04 r, 00.00m,0000598859Hz,0000000000c,0000000.000s, 004.8C,00002191
2022-02-16 12:43:07 r, 00.00m,0000598704Hz,0000000000c,0000000.000s, 005.1C,00002191
2022-02-16 12:53:05 r, 00.00m,0000598552Hz,0000000000c,0000000.000s, 005.4C,00002191
2022-02-16 13:03:04 r, 00.00m,0000598309Hz,0000000000c,0000000.000s, 007.7C,00002191
2022-02-16 13:13:07 r, 00.00m,0000598246Hz,0000000000c,0000000.000s, 009.0C,00002191
2022-02-16 13:23:05 r, 00.00m,0000598260Hz,0000000000c,0000000.000s, 008.0C,00002191
2022-02-16 13:33:04 r, 00.00m,0000598407Hz,0000000000c,0000000.000s, 006.7C,00002191
2022-02-16 13:43:05 r, 00.00m,0000598569Hz,0000000000c,0000000.000s, 005.8C,00002191
2022-02-16 13:53:05 r, 00.00m,0000598622Hz,0000000000c,0000000.000s, 004.8C,00002191
2022-02-16 14:03:04 r, 00.00m,0000598632Hz,0000000000c,0000000.000s, 004.1C,00002191
2022-02-16 14:13:06 r, 00.00m,0000598752Hz,0000000000c,0000000.000s, 003.5C,00002191
2022-02-16 14:23:05 r, 00.00m,0000598819Hz,0000000000c,0000000.000s, 003.2C,00002191
2022-02-16 14:33:04 r, 00.00m,0000598798Hz,0000000000c,0000000.000s, 002.9C,00002191
2022-02-16 14:43:07 r, 00.00m,0000598804Hz,0000000000c,0000000.000s, 002.5C,00002191
2022-02-16 14:53:05 r, 00.00m,0000598814Hz,0000000000c,0000000.000s, 003.2C,00002191
2022-02-16 15:03:04 r, 00.00m,0000598728Hz,0000000000c,0000000.000s, 003.5C,00002191
2022-02-16 15:13:07 r, 00.00m,0000598753Hz,0000000000c,0000000.000s, 003.2C,00002191
2022-02-16 15:23:05 r, 00.00m,0000598986Hz,0000000000c,0000000.000s, 002.5C,00002191
2022-02-16 15:33:04 r, 00.00m,0000599019Hz,0000000000c,0000000.000s, 001.9C,00002191
2022-02-16 15:43:05 r, 00.00m,0000598912Hz,0000000000c,0000000.000s, 001.6C,00002191
2022-02-16 15:53:06 r, 00.00m,0000599026Hz,0000000000c,0000000.000s, 001.2C,00002191
2022-02-16 16:03:04 r, 00.00m,0000599050Hz,0000000000c,0000000.000s, 001.2C,00002191
2022-02-16 16:13:06 r, 00.00m,0000599043Hz,0000000000c,0000000.000s, 000.6C,00002191
2022-02-16 16:23:05 r, 00.00m,0000599147Hz,0000000000c,0000000.000s, 000.3C,00002191
2022-02-16 16:33:04 r, 00.00m,0000599145Hz,0000000000c,0000000.000s,-000.7C,00002191
2022-02-16 16:43:05 r, 00.00m,0000599221Hz,0000000000c,0000000.000s,-001.0C,00002191
2022-02-16 16:53:07 r, 00.00m,0000599242Hz,0000000000c,0000000.000s,-001.7C,00002191
2022-02-16 17:03:04 r, 00.00m,0000495031Hz,0000000000c,0000000.000s,-002.0C,00002191
2022-02-16 17:13:04 r, 05.87m,0000378347Hz,0000000000c,0000000.000s,-002.3C,00002191
2022-02-16 17:23:05 r, 06.20m,0000280734Hz,0000000000c,0000000.000s,-002.6C,00002191
2022-02-16 17:33:04 r, 06.64m,0000186063Hz,0000000000c,0000000.000s,-003.3C,00002191
2022-02-16 17:43:07 r, 07.29m,0000102369Hz,0000000000c,0000000.000s,-003.6C,00002191
2022-02-16 17:53:05 r, 08.27m,0000041847Hz,0000000000c,0000000.000s,-004.2C,00002191
2022-02-16 18:03:04 r, 09.68m,0000011367Hz,0000000000c,0000000.000s,-005.2C,00002191
2022-02-16 18:13:05 r, 11.61m,0000001922Hz,0000000000c,0000000.000s,-005.5C,00002191
2022-02-16 18:23:06 r, 13.74m,0000000270Hz,0000000000c,0000000.000s,-005.9C,00002191
2022-02-16 18:33:04 r, 15.84m,0000000039Hz,0000011891c,0000000.026s,-006.5C,00002191
2022-02-16 18:43:04 r, 17.45m,0000000009Hz,0000052160c,0000000.113s,-006.8C,00002191
2022-02-16 18:53:07 r, 18.40m,0000000004Hz,0000123991c,0000000.269s,-007.1C,00002191
2022-02-16 19:03:04 r, 18.74m,0000000003Hz,0000171017c,0000000.371s,-007.1C,00002191
2022-02-16 19:13:04 r, 18.76m,0000000003Hz,0000174864c,0000000.379s,-007.5C,00002191
2022-02-16 19:23:07 r, 18.70m,0000000002Hz,0000164013c,0000000.356s,-007.8C,00002191
2022-02-16 19:33:04 r, 18.61m,0000000003Hz,0000152404c,0000000.331s,-007.8C,00002191
2022-02-16 19:43:07 r, 18.53m,0000000003Hz,0000141253c,0000000.307s,-008.1C,00002191
2022-02-16 19:53:05 r, 18.46m,0000000004Hz,0000132449c,0000000.287s,-008.1C,00002191
2022-02-16 20:03:04 r, 18.39m,0000000004Hz,0000124818c,0000000.271s,-008.4C,00002191
2022-02-16 20:13:07 r, 18.33m,0000000004Hz,0000117529c,0000000.255s,-008.8C,00002191
2022-02-16 20:23:05 r, 18.27m,0000000005Hz,0000111254c,0000000.241s,-008.8C,00002191
2022-02-16 20:33:04 r, 18.20m,0000000004Hz,0000104755c,0000000.227s,-009.1C,00002191
2022-02-16 20:43:05 r, 18.14m,0000000004Hz,0000099179c,0000000.215s,-009.1C,00002191
2022-02-16 20:53:05 r, 18.08m,0000000005Hz,0000093782c,0000000.204s,-009.4C,00002191
2022-02-16 21:03:04 r, 18.02m,0000000005Hz,0000088591c,0000000.192s,-009.4C,00002191
2022-02-16 21:13:06 r, 17.95m,0000000006Hz,0000083436c,0000000.181s,-009.7C,00002191
2022-02-16 21:23:05 r, 17.89m,0000000005Hz,0000078560c,0000000.170s,-010.0C,00002191
2022-02-16 21:33:04 r, 17.83m,0000000006Hz,0000074349c,0000000.161s,-010.0C,00002191
2022-02-16 21:43:07 r, 17.76m,0000000006Hz,0000070094c,0000000.152s,-010.4C,00002191
2022-02-16 21:53:05 r, 17.70m,0000000007Hz,0000066280c,0000000.144s,-010.7C,00002191
2022-02-16 22:03:04 r, 17.64m,0000000008Hz,0000062069c,0000000.135s,-011.0C,00002191
2022-02-16 22:13:07 r, 17.55m,0000000008Hz,0000057548c,0000000.125s,-011.3C,00002191
2022-02-16 22:23:05 r, 17.47m,0000000009Hz,0000053550c,0000000.116s,-011.3C,00002191
2022-02-16 22:33:04 r, 17.39m,0000000009Hz,0000049198c,0000000.107s,-011.3C,00002191
2022-02-16 22:43:05 r, 17.24m,0000000010Hz,0000043497c,0000000.094s,-011.3C,00002191
2022-02-16 22:53:06 r, 17.13m,0000000012Hz,0000039149c,0000000.085s,-011.7C,00002191
2022-02-16 23:03:04 r, 17.02m,0000000013Hz,0000035493c,0000000.077s,-011.7C,00002191
2022-02-16 23:13:04 r, 16.94m,0000000014Hz,0000032827c,0000000.071s,-012.0C,00002191
2022-02-16 23:23:07 r, 16.86m,0000000016Hz,0000030474c,0000000.066s,-012.3C,00002191
2022-02-16 23:33:04 r, 16.77m,0000000016Hz,0000027919c,0000000.061s,-012.3C,00002191
2022-02-16 23:43:04 r, 16.69m,0000000018Hz,0000026074c,0000000.057s,-012.3C,00002191
2022-02-16 23:53:07 r, 16.67m,0000000019Hz,0000025453c,0000000.055s,-012.3C,00002191
